DateTimeUTC,F1_A11,F1_S11,BsB_S11,BsG_S11,BsR_S11,BbsB_S11,BbsG_S11,BbsR_S11,BaB_A11,BaG_A11,BaR_A11,Tu_S11,T_S11,Uu_S11,U_S11,P_S11,T1_A11
2021-05-27T12:00:00Z,00000200,20000000,,,,,,,-000.25,0000.24,-000.18,18.8,25.1,09.5,06.5,0679.1,31.0
2021-05-27T12:01:00Z,00000200,20000000,,,,,,,0000.47,-000.09,0000.34,18.8,25.1,09.5,06.5,0679.1,31.0
2021-05-27T12:02:00Z,00000200,20000000,,,,,,,-000.23,-000.12,-000.47,18.8,25.1,09.5,06.5,0679.1,31.0
2021-05-27T12:03:00Z,00000200,60000000,,,,,,,-000.03,0000.12,0000.09,18.8,25.1,09.5,06.5,0679.1,31.0
2021-05-27T12:04:00Z,00000200,40000000,-000.34,0000.15,0000.03,0000.44,0000.23,0000.01,0000.01,0000.06,0000.26,18.9,25.0,09.5,06.5,0680.1,31.0
2021-05-27T12:05:00Z,00000200,00000000,0000.68,0000.20,0000.35,0000.76,0000.08,0000.45,0000.19,0000.00,0000.24,18.9,24.9,09.4,06.5,0680.2,31.0
2021-05-27T12:06:00Z,00000200,00000000,0000.92,0000.05,0000.06,0000.25,0000.21,-000.07,0000.15,0000.09,-000.48,18.9,25.0,09.5,06.6,0680.1,31.0
2021-05-27T12:07:00Z,00000200,00000000,0000.42,0000.25,-000.08,-000.40,0000.17,0000.08,-000.36,0000.05,0000.45,18.9,24.9,09.5,06.6,0680.1,31.0
2021-05-27T12:08:00Z,00000200,00000000,0000.39,-000.10,-000.03,0000.31,-000.07,-000.05,0000.43,-000.11,0000.26,19.0,25.0,09.5,06.6,0680.2,31.0
2021-05-27T12:09:00Z,00000200,00000000,-000.12,0000.34,0000.30,-000.22,-000.19,0000.55,-000.03,0000.57,-000.24,19.0,25.0,09.5,06.6,0680.2,31.0
2021-05-27T12:10:00Z,00000200,00000000,0000.05,0000.04,-000.00,-000.11,-000.03,0000.37,-000.02,-000.39,0000.05,19.0,25.0,09.4,06.5,0680.2,31.0
2021-05-27T12:11:00Z,00000200,00000000,0000.49,0000.19,0000.29,0000.17,0000.18,0000.14,-000.20,-000.04,-000.20,19.0,25.0,09.5,06.6,0680.2,31.0
2021-05-27T12:12:00Z,00000200,00000000,0000.34,-000.05,0000.09,-000.33,0000.03,0000.19,0000.29,0000.49,-000.11,19.0,25.0,09.4,06.6,0680.2,31.1
2021-05-27T12:13:00Z,00000200,00000000,0000.32,0000.36,0000.10,-000.19,0000.08,0000.26,0000.08,-000.23,0000.13,19.0,25.0,09.4,06.5,0680.2,31.0
2021-05-27T12:14:00Z,00000200,00000000,0000.39,0000.13,0000.28,-000.45,-000.02,0000.36,-000.01,-000.14,0000.08,19.0,25.0,09.5,06.6,0680.1,31.0
2021-05-27T12:15:00Z,00000200,00000000,0000.37,0000.53,0000.33,0000.42,0000.08,0000.25,-000.09,0000.10,-000.06,19.0,25.0,09.5,06.6,0680.1,31.0
2021-05-27T12:16:00Z,00000200,00000000,0000.46,0000.17,0000.16,0000.20,0000.05,-000.02,0000.45,0000.04,-000.12,19.0,25.0,09.4,06.6,0680.1,31.0
2021-05-27T12:17:00Z,00000200,00000000,0000.03,-000.28,0000.10,0000.56,0000.05,-000.20,-000.09,-000.09,0000.52,19.0,25.0,09.5,06.6,0680.1,31.0
2021-05-27T12:18:00Z,00000200,00000000,0000.13,0000.12,0000.07,0000.15,0000.02,0000.38,-000.14,0000.16,-000.39,19.0,25.0,09.5,06.6,0680.1,31.0
2021-05-27T12:19:00Z,00000200,00000000,0000.14,0000.17,0000.32,-000.18,0000.10,0000.10,-000.14,-000.04,0000.16,19.1,25.0,09.5,06.6,0680.1,31.0
2021-05-27T12:20:00Z,00000200,00000000,0000.46,0000.38,0000.07,0000.41,0000.07,0000.26,0000.01,0000.03,0000.40,19.1,25.0,09.5,06.6,0680.1,31.0
2021-05-27T12:21:00Z,00000200,00000000,0000.22,0000.51,0000.45,0000.26,-000.05,0000.41,0000.23,0000.08,-000.47,19.1,25.0,09.4,06.5,0680.0,31.0
2021-05-27T12:22:00Z,00000200,00000000,0000.19,0000.53,0000.15,-000.39,0000.09,0000.07,-000.23,0000.14,0000.17,19.1,25.0,09.5,06.6,0680.1,31.0
2021-05-27T12:23:00Z,00000200,00000000,-000.19,0000.06,0000.03,0000.31,0000.09,0000.08,0000.27,0000.17,0000.16,19.1,25.0,09.4,06.6,0680.1,31.0
2021-05-27T12:24:00Z,00000200,00000000,-000.01,0000.36,0000.36,0000.45,0000.17,0000.27,0000.46,-000.10,-000.11,19.1,25.0,09.3,06.5,0680.1,31.0
2021-05-27T12:25:00Z,00000200,00000000,0000.44,0000.28,-000.01,-000.05,0000.02,0000.24,0000.05,-000.14,-000.12,19.1,25.1,09.3,06.5,0680.0,31.0
2021-05-27T12:26:00Z,00000200,00000000,-000.11,0000.46,-000.01,0000.03,0000.25,0000.17,-000.53,-000.00,0000.14,19.1,25.1,09.2,06.5,0680.1,31.0
2021-05-27T12:27:00Z,00000200,00000000,0000.08,0000.44,0000.21,0000.31,-000.25,0000.02,-000.21,-000.21,0000.19,19.1,25.1,09.3,06.5,0680.1,31.0
2021-05-27T12:28:00Z,00000200,00000000,0000.21,0000.19,0000.39,0000.40,0000.13,0000.15,0000.87,0000.51,0000.50,19.2,25.1,09.3,06.5,0680.1,31.1
2021-05-27T12:29:00Z,00000200,00000000,0001.25,0000.51,-000.03,0000.06,0000.10,0000.29,-000.37,0000.21,-000.36,19.2,25.1,09.4,06.5,0680.1,31.0
2021-05-27T12:30:00Z,00000200,00000000,-000.31,0000.60,0000.16,0000.38,0000.11,0000.05,-000.05,-000.67,-000.11,19.2,25.1,09.2,06.5,0680.2,31.0
2021-05-27T12:31:00Z,00000200,00000000,0000.17,0000.21,-000.08,0000.09,0000.17,0000.61,-000.06,0000.54,-000.15,19.2,25.1,09.3,06.5,0680.2,31.0
2021-05-27T12:32:00Z,00000200,00000000,-000.05,0000.29,0000.17,-000.13,0000.11,0000.10,0000.55,0000.54,0000.36,19.2,25.1,09.3,06.5,0680.2,31.0
2021-05-27T12:33:00Z,00000200,00000000,0000.03,0000.20,0000.23,0000.49,0000.08,0000.23,-000.47,-000.33,0000.27,19.2,25.1,09.2,06.4,0680.2,31.0
2021-05-27T12:34:00Z,00000200,00000000,-000.31,0000.30,0000.01,0000.21,0000.04,-000.15,0000.40,-000.03,-000.16,19.2,25.1,09.3,06.5,0680.2,31.0
2021-05-27T12:35:00Z,00000200,00000000,0000.45,0000.77,0000.12,-000.14,0000.03,0000.24,-000.03,0000.03,-000.27,19.2,25.1,09.2,06.4,0680.2,31.0
2021-05-27T12:36:00Z,00000200,00000000,0000.31,0000.26,0000.20,0000.15,0000.03,0000.29,0000.19,0000.07,0000.03,19.2,25.1,09.2,06.4,0680.2,31.0
2021-05-27T12:37:00Z,00000200,00000000,0000.04,0000.25,0000.11,0000.02,0000.07,0000.13,-000.55,-000.46,0000.28,19.3,25.1,09.2,06.4,0680.1,31.0
2021-05-27T12:38:00Z,00000200,00000000,0000.86,0000.49,0000.39,0000.62,0000.18,0000.21,0000.42,0000.51,-000.30,19.3,25.1,09.1,06.4,0680.1,31.0
2021-05-27T12:39:00Z,00000200,00000000,0000.49,0000.31,-000.01,0000.35,-000.08,-000.20,0000.04,0000.03,0000.20,19.3,25.1,09.1,06.4,0680.1,31.0
2021-05-27T12:40:00Z,00000200,00000000,0000.61,0000.51,0000.27,0000.09,0000.04,-000.13,-000.05,-000.31,0000.18,19.3,25.1,09.0,06.3,0680.2,31.0
2021-05-27T12:41:00Z,00000200,00000000,0000.34,0000.36,0000.25,-000.03,0000.18,0000.29,0000.05,0000.19,-000.11,19.3,25.1,09.1,06.4,0680.2,31.0
2021-05-27T12:42:00Z,00000200,00000000,0000.00,0000.20,0000.18,0000.07,0000.04,-000.15,0000.32,-000.21,0000.18,19.3,25.2,09.1,06.4,0680.2,31.0
2021-05-27T12:43:00Z,00000200,00000000,0000.70,0000.37,0000.10,0000.35,0000.17,0000.30,-000.63,0000.36,-000.37,19.3,25.2,09.0,06.3,0680.2,31.0
2021-05-27T12:44:00Z,00000200,00000000,0000.31,0000.38,0000.37,0000.20,0000.10,0000.21,0000.48,-000.41,0000.25,19.3,25.2,08.9,06.3,0680.2,31.1
2021-05-27T12:45:00Z,00000200,00000000,0000.88,0000.01,0000.44,0000.15,0000.15,0000.27,-000.02,0000.30,-000.45,19.4,25.2,08.9,06.2,0680.1,31.0
2021-05-27T12:46:00Z,00000200,00000000,-000.11,0000.39,0000.12,0000.12,0000.17,0000.20,-000.26,-000.22,0000.31,19.4,25.2,08.8,06.2,0680.1,31.0
2021-05-27T12:47:00Z,00000200,00000000,0000.61,0000.04,0000.43,0000.27,0000.11,0000.38,0000.28,0000.44,-000.15,19.4,25.2,08.8,06.1,0680.1,31.0
2021-05-27T12:48:00Z,00000200,00000000,0000.40,0000.04,0000.18,-000.07,0000.15,0000.02,0000.06,-000.44,0000.17,19.4,25.2,08.7,06.1,0680.1,31.0
2021-05-27T12:49:00Z,00000200,00000000,0000.32,0000.32,0000.10,0000.16,0000.15,0000.12,-000.78,-000.11,-000.38,19.4,25.2,08.6,06.0,0680.1,31.0
2021-05-27T12:50:00Z,00000200,00000000,0000.25,0000.30,-000.01,0000.24,0000.17,-000.04,0000.78,0000.40,0000.27,19.4,25.2,08.4,05.9,0680.1,31.1
2021-05-27T12:51:00Z,00000200,00000000,0000.66,0000.26,-000.13,0000.57,0000.11,-000.14,-000.31,-000.44,0000.18,19.4,25.2,08.4,05.9,0680.1,31.0
2021-05-27T12:52:00Z,00000200,40000000,0000.13,0000.76,-000.04,0000.04,0000.47,-000.54,0001.11,0001.07,0000.73,19.5,25.3,08.4,05.9,0680.1,31.1
2021-05-27T12:53:00Z,00000200,40000000,,,,,,,-000.79,-000.83,-000.66,19.3,25.4,08.7,06.0,0679.4,31.1
2021-05-27T12:54:00Z,00000200,00000000,,,,,,,0000.15,0000.31,-000.33,19.3,25.5,08.5,05.9,0679.2,31.1
2021-05-27T12:55:00Z,00000200,00000000,,,,,,,-001.21,-000.55,0005.43,19.4,25.5,08.8,06.0,0679.2,31.1
2021-05-27T12:55:08Z,00000200,00000000,,,,,,,-001.21,-000.55,0005.43,19.4,25.5,08.8,06.0,0679.2,31.1
2021-05-27T12:55:08Z,00000200,00000000,,,,,,,-001.21,-000.55,0005.43,,,,,,31.1
2021-05-27T12:55:08Z,,00000000,,,,,,,,,,,,,,,
2021-05-27T12:55:09Z,00000200,00000000,,,,,,,,,,,,,,,
2021-05-27T12:56:00Z,00000200,00000000,,,,,,,,,,,,,,,
2021-05-27T12:57:00Z,00000200,01000000,,,,,,,,,,,,,,,
2021-05-27T12:58:00Z,00000200,01000000,,,,,,,,,,,,,,,
2021-05-27T12:59:00Z,00000200,01000000,,,,,,,,,,,,,,,
